Tracking 20036 objects as of 21-Nov-2019
Live streaming from Space Station
objects crossing your sky now

DELTA 1 DEB

Track DELTA 1 DEB now!
10-day predictions


NORAD ID: 7907
Int'l Code: 1972-058BS
Perigee: 682.4 km
Apogee: 1,089.2 km
Inclination: 97.7 °
Period: 102.5 minutes
Semi major axis: 7256 km
RCS: 0.1507 m2 (medium)
Launch date: July 23, 1972
Source: United States (US)
Launch site: AIR FORCE WESTERN TEST RANGE (AFWTR)

Note: This is SATELLITE DEBRIS
aabbcc
Your satellite tracking list
Your tracking list is empty




NASA's NSSDC Master Catalog

Two Line Element Set (TLE):
1  7907U 72058BS  19324.75429648  .00000138  00000-0  77654-4 0  9994
2  7907  97.7376  70.5060 0280296 341.8363  17.2948 14.04371448262138
Source of the keplerian elements: AFSPC